MAKERSAT 0

Last updated on Fri Jul 11 2025 00:03:42 GMT+0000 (Coordinated Universal Time)

1 43016U 17073D 25191.62938316 .00009826 00000+0 38721-3 0 9996 2 43016 97.5151 69.5180 0145645 33.3235 327.7063 15.16435262414447
UTC large
Height (km)
Speed (km/s)
/
Latitude / Longitude
Inclination (degrees)
Orbital Period (minutes)
Azimuth
Elevation
Range (km)
Doppler Factor

Next 0 passes for location: London (51.5072 / 0.1276)

Sorry there are no passes over London.